334  
ASUS41 KAKQ 071111  
RWRAKQ  
 
REGIONAL WEATHER ROUNDUP  
NATIONAL WEATHER SERVICE WAKEFIELD VA  
600 AM EST TUE FEB 07 2023  
 
NOTE: "FAIR" INDICATES FEW OR NO CLOUDS BELOW 12,000 FEET WITH NO  
SIGNIFICANT WEATHER AND/OR S TO VISIBILITY
. * = DENOTES  
STATION MAY NOT REPORT PRECIPITATION (E.G., RAIN,SNOW,ETC.),
 
THUNDER OR FOG.  
 
VAZ042-051-052>054-056-071200-  
NORTHERN VIRGINIA  
 
CITY SKY/WX TMP DP RH WIND PRES REMARKS
 
WASH NATIONAL PTCLDY 33 28 81 SW3 30.36R  
DULLES PTCLDY 24 21 88 CALM 30.33S  
FORT BELVOIR PTCLDY 25 23 91 CALM 30.34R  
QUANTICO PTCLDY 30 32 100 W6 30.37S  
FREDERICKSBRG* PTCLDY 27 25 94 CALM 30.35R  
STAFFORD* PTCLDY 31 28 90 CALM 30.36R  
WARRENTON PTCLDY 22 20 91 CALM 30.34S  
CULPEPER* MOCLDY 24 22 93 CALM 30.36R  
MANASSAS* PTCLDY 22 20 92 CALM 30.36R  
LEESBURG* MOCLDY 28 28 100 CALM 30.35S  
WINCHESTER MOCLDY 21 19 93 CALM 30.28F  
FRONT ROYAL* FAIR 25 23 93 CALM 30.30S  
LURAY* FAIR 21 21 100 CALM 30.30R  

 
 
VAZ048-049-060>072-079>083-071200-  
CENTRAL AND SOUTH CENTRAL VIRGINIA  
 
CITY SKY/WX TMP DP RH WIND PRES REMARKS
 
RICHMOND PTCLDY 29 25 85 CALM 30.36R  
CHESTERFIELD* FAIR 22 21 96 CALM 30.36R  
PETERSBURG* CLEAR 26 25 96 CALM 30.38R  
HANOVER PTCLDY 28 25 88 CALM 30.37R  
TAPPAHANNOCK* PTCLDY 26 26 100 CALM 30.36S  
QUINTON* FAIR 26 24 94 CALM 30.36S  
CHARLOTTSVILLE MOCLDY 31 24 75 CALM 30.33S  
GORDONSVILLE* FAIR 26 24 93 CALM 30.34S  
ORANGE* MOCLDY 25 25 100 CALM 30.36S  
LOUISA* MOCLDY 25 24 96 CALM 30.34S  
BUMPASS* FAIR 26 25 96 CALM 30.35S  
FARMVILLE* CLEAR 26 25 98 CALM 30.36R  
CREWE* FAIR 25 23 91 CALM 30.35S  
FORT PICKETT* FAIR 29 27 92 CALM 30.36R  
CHASE CITY* FAIR 29 28 96 MISG 30.35R  
CLARKSVILLE* FAIR 32 32 100 CALM 30.35R  
SOUTH HILL* CLEAR 29 28 98 CALM 30.41R  
LAWRENCEVILLE* FAIR 32 31 95 CALM 30.36S  
EMPORIA* CLEAR 25 24 97 CALM 30.38S  

 
 
VAZ088>098-071200-  
SOUTHEAST VIRGINIA  
 
CITY SKY/WX TMP DP RH WIND PRES REMARKS
 
NORFOLK CLEAR 34 32 92 CALM 30.35R  
VIRGINIA BEACH PTCLDY 31 29 92 SW6 30.36R  
NORFOLK NAVAL PTCLDY 34 33 96 CALM 30.37R  
WEST POINT* CLEAR 25 24 95 CALM 30.37S  
SALUDA* FAIR 29 28 94 CALM 30.36R  
NEWPORT NEWS CLEAR 25 25 100 CALM 30.36R  
LANGLEY AFB CLEAR 31 30 99 NW3 30.35R  
FORT EUSTIS CLEAR 32 29 89 CALM 30.33R  
WILLIAMSBURG* NOT AVBL  
HR EXEC AP* FAIR 21 21 100 CALM 30.38R  
FRANKLIN* CLEAR 26 24 93 CALM 30.37S  
US460-WAKEFLD CLEAR 28 25 88 CALM 30.37R  

 
 
VAZ020-022-025-037-045-071200-  
WEST CENTRAL AND SOUTHWEST VIRGINIA  
 
CITY SKY/WX TMP DP RH WIND PRES REMARKS
 
STAUNTON* MOCLDY 24 22 93 SW3 30.31R  
WAYNESBORO* FAIR 29 26 87 CALM 30.29S  
HOT SPRINGS VA PTCLDY 33 24 68 SW10 30.21R WCI 25  
LYNCHBURG CLEAR 27 23 85 CALM 30.33R  
DANVILLE PTCLDY 29 25 85 CALM 30.34S  
SOUTH BOSTON* FAIR 27 25 92 CALM 30.35S  
MARTINSVILLE PTCLDY 26 21 83 CALM 30.36R  
ROANOKE CLEAR 34 25 69 CALM 30.34R  
BLACKSBURG CLEAR 26 23 89 CALM 30.32R  
DUBLIN* CLEAR 25 24 96 CALM 30.28R  
MARION* PTCLDY 29 21 71 SE3 30.28R  
HILLSVILLE* CLEAR 33 26 73 S6 30.26R  
RICHLANDS* FAIR 44 19 36 S5 30.21R  
WISE* PTCLDY 41 23 48 S7 30.21R  
ABINGDON* PTCLDY 35 24 63 E3 30.23S  

 
 
MDZ021>025-VAZ099-100-071200-  
SOUTHERN MARYLAND AND THE DELMARVA PENINSULA  
 
CITY SKY/WX TMP DP RH WIND PRES REMARKS
 
PATUXENT RIVER CLEAR 28 24 85 SW5 30.36R  
BAY BRIDGE APT PTCLDY 28 27 94 CALM 30.36S  
LEONARDTOWN CLEAR 28 27 93 CALM 30.37R  
DOVER PTCLDY 29 29 99 CALM 30.33S  
GEORGETOWN CLEAR 30 24 78 CALM 30.35R  
EASTON CLEAR 28 27 93 CALM 30.39S  
CAMBRIDGE CLEAR 27 27 100 CALM 30.36R  
SALISBURY CLEAR 28 25 88 CALM 30.35R  
TANGIER FAIR 37 32 81 N6 30.35R  
OCEAN CITY CLEAR 29 26 89 NW5 30.35S  
WALLOPS ISLAND CLEAR 28 25 88 NW6 30.35R  
ACCOMACK* NOT AVBL  

 
 
NCZ012>017-030>032-071200-  
NORTH CENTRAL AND EASTERN NORTH CAROLINA  
 
CITY SKY/WX TMP DP RH WIND PRES REMARKS
 
ROANOKE RAPIDS FAIR 28 28 100 CALM 30.37R  
RALEIGH MOCLDY 35 30 82 CALM 30.35R  
ELIZABETH CITY CLEAR 33 31 92 W3 30.36R  
AHOSKIE* CLEAR 26 26 100 CALM 30.37R  
EDENTON* CLEAR 32 32 100 CALM 30.37R  
CURRITUCK* CLEAR 32 32 100 CALM 30.35R  
KILL DEVIL HLS CLEAR 42 34 73 CALM 30.33R  
MANTEO CLEAR 34 32 93 CALM 30.36R  
CAPE HATTERAS CLEAR 43 38 82 N5 30.34R  
TARBORO* FAIR 28 28 97 CALM 30.37R  
GOLDSBORO CLEAR 32 31 99 CALM 30.33R  
WASHINGTON CLEAR 31 29 92 CALM 30.37R  
GREENVILLE N/A 32 32 100 CALM 30.36R FOG  
NEW BERN CLEAR 35 32 88 CALM 30.36R  
WILMINGTON CLEAR 36 34 92 NE3 30.34R FOG  

 
 
VAZ048-071200-  
ELSEWHERE  
 
CITY SKY/WX TMP DP RH WIND PRES REMARKS
 
HARRISBURG PA MOCLDY 24 21 88 E3 30.31F  
BALTIMORE PTCLDY 28 23 81 CALM 30.34R  
ANNAPOLIS PTCLDY 31 28 89 CALM 30.35S  
ANDREWS AFB PTCLDY 25 23 92 CALM 30.32S  
PHILADELPHIA MOCLDY 28 21 75 CALM 30.35S  
HENDERSON NC PTCLDY 28 28 100 CALM 30.35R  
GREENSBORO PTCLDY 35 28 75 CALM 30.31R  
ROCKY MOUNT CLEAR 31 29 92 CALM 30.36R  

 
 
VAZ100-071200-  
MARINE  
 
STATION/POSITION TIME TEMP WIND PRES WAVE SWELL
 
AIR SEA DIR/SP/G HT/PER HT/PER  
(UTC) (F) (DEG/KT/KT) (MB) (FT/S) (FT/S)  
CAPE MAY NJ 1030 34 350/ 3/ 6 1027.5R  
LEWES DE 1030 38 41 20/ 9/ 11 1027.8S  
15NM E FENWICK I 1050 40 44 350/ 10/ 12 1026.8R  
OCEAN-CITY-INLET 1030 35 41 360/ 5/ 5 1027.8F  
44089 WALLOPS IS 1056 43 N/A 4/ 8 2/11  
WACHAPREAGUE VA 1030 33 42 350/ 3/ 4 1027.0R  
THOMAS POINT MD 1100 36 40/ 6/ 7 1028.5F  
GOOSES REEF MD 1048 35 40 50/ 10/ 12 1029.5R 1/17  
COVE POINT MD 1030 38 350/ 7/ 8 1028.0R  
SOLOMONS ISLAND 1030 33 41 340/ 1/ 2 1026.6R  
BISHOPS HEAD MD 1030 34 40 360/ 4/ 5 1027.9R  
PINEY POINT MD 1030 60/ 5/ 5 N/A  
POTOMAC MD 1042 35 41 10/ 6/ 6 N/A  
CAMBRIDGE MD 1030 35 40 20/ 3/ 4 1027.9R  
LEWISETTA VA 1030 33 310/ 2/ 3 1027.7R  
RAPPAHANNOCK LGT 1030 10/ 9/ 10 1028.1R  
STINGRAY PT 1042 36 42 340/ 6/ 8 N/A 1  
YORK RVR RNG VA 1030 40 360/ 7/ 8 1027.7R  
YORKTOWN VA 1030 38 44 340/ 5/ 6 1025.9R  
JAMESTOWN VA 1042 32 30/ 4/ 4 N/A 0  
DOMINION TERM VA 1030 39 360/ 1/ 4 1027.8R  
KIPTOPEKE VA 1030 47 30/ 5/ 6 N/A  
CHES BAY BRIDGE 1030 42 30/ 8/ 9 1025.6R  
CAPE HENRY VA 1030 42 10/ 10/ 11 1027.6R  
WILLOUBY STN VA 1030 39 350/ 6/ 6 1027.9R  
S CRANEY ISL VA 1030 37 280/ 2/ 3 1027.4R  
CAPE HENRY BUOY 1056 45 N/A 4/ 8 2/11  
1ST LANDING BUOY 1042 39 44 10/ 12/ 14 1027.8R 1/ 8  
DUCK PIER NC 1030 44 47 20/ 11/ 12 1026.8R  
44100 DUCK FRF 1056 47 N/A 6/ 8 2/11  
44056 DUCK FRF 1026 47 N/A 5/ 8 2/11  
OREGON INLET NC 1030 44 48 20/ 6/ 10 1027.0R  
HATTERAS NC 1030 45 50 10/ 9/ 10 1027.3R  
DIAMOND SHLS NC 1040 73 10/ 14/ 19 1026.9R  
CAPE LOOKOUT NC 1000 45 20/ 10/ 11 1027.2R  

 
 
 
CLICK HERE TO GO TO PREVIOUS BULLETINS.

The Nexlab VA Page
The Nexlab NC Page
The Nexlab MD Page Main Text Page